Location: Newark
(34.0131°N, 4.3314°W)
Time: 11:07:06
(UTC+00:00)

A-11 Canister half - Pass Details

Date: 31 October 2019
Orbit: 1514 x 1686 km, 47.2° (Epoch: 18 November)

Event Time Altitude Azimuth Distance (km) Brightness Sun altitude
Rises 21:03:09 0° 205° (SSW) 4,914 11.7 -45.3°
Enters shadow 21:06:23 10° 198° (SSW) 3,974 11.1 -46.0°
Reaches altitude 10° 21:06:31 10° 198° (SSW) 3,935 - -46.0°
Maximum altitude 21:15:50 43° 131° (SE) 2,226 - -47.8°
Drops below altitude 10° 21:25:05 10° 65° (ENE) 3,915 - -49.7°
Sets 21:28:24 0° 59° (ENE) 4,887 - -50.3°
